Time,TemperatureF,DewpointF,PressureIn,WindDirection,WindDirectionDegrees,WindSpeedMPH,WindSpeedGustMPH,Humidity,HourlyPrecipIn,Conditions,Clouds,dailyrainin,SoftwareType,DateUTC
2013-09-28 00:05:00,66.6,56.0,30.17,NE,56,4.0,4.0,68,0.00,,,0.00,weatherlink.com 1.10,2013-09-28 04:05:00,
2013-09-28 00:20:00,67.3,56.0,30.17,East,81,0.0,3.0,67,0.00,,,0.00,weatherlink.com 1.10,2013-09-28 04:20:00,
2013-09-28 00:35:00,65.9,57.0,30.17,East,89,2.0,2.0,73,0.00,,,0.00,weatherlink.com 1.10,2013-09-28 04:35:00,
2013-09-28 01:05:00,64.7,57.0,30.17,ENE,63,2.0,3.0,77,0.00,,,0.00,weatherlink.com 1.10,2013-09-28 05:05:00,
2013-09-28 01:20:00,64.1,57.0,30.17,East,86,3.0,3.0,79,0.00,,,0.00,weatherlink.com 1.10,2013-09-28 05:20:00,
2013-09-28 01:35:00,63.9,58.0,30.17,SE,143,2.0,3.0,80,0.00,,,0.00,weatherlink.com 1.10,2013-09-28 05:35:00,
2013-09-28 01:50:00,63.4,58.0,30.17,East,94,2.0,4.0,82,0.00,,,0.00,weatherlink.com 1.10,2013-09-28 05:50:00,
2013-09-28 02:05:00,62.7,58.0,30.18,East,83,1.0,3.0,83,0.00,,,0.00,weatherlink.com 1.10,2013-09-28 06:05:00,
2013-09-28 02:20:00,62.3,58.0,30.18,East,82,2.0,3.0,86,0.00,,,0.00,weatherlink.com 1.10,2013-09-28 06:20:00,
2013-09-28 02:35:00,62.0,58.0,30.18,SE,131,0.0,3.0,85,0.00,,,0.00,weatherlink.com 1.10,2013-09-28 06:35:00,
2013-09-28 02:50:00,61.6,57.0,30.18,ENE,67,0.0,2.0,86,0.00,,,0.00,weatherlink.com 1.10,2013-09-28 06:50:00,
2013-09-28 03:05:00,61.1,58.0,30.18,NNE,19,2.0,3.0,88,0.00,,,0.00,weatherlink.com 1.10,2013-09-28 07:05:00,
2013-09-28 03:20:00,61.6,57.0,30.18,NE,52,1.0,3.0,86,0.00,,,0.00,weatherlink.com 1.10,2013-09-28 07:20:00,
2013-09-28 03:35:00,61.2,58.0,30.18,NNE,18,0.0,2.0,88,0.00,,,0.00,weatherlink.com 1.10,2013-09-28 07:35:00,
2013-09-28 03:50:00,60.1,57.0,30.18,WNW,295,4.0,5.0,89,0.00,,,0.00,weatherlink.com 1.10,2013-09-28 07:50:00,
2013-09-28 04:05:00,60.7,58.0,30.19,NW,323,1.0,3.0,90,0.00,,,0.00,weatherlink.com 1.10,2013-09-28 08:05:00,
2013-09-28 04:20:00,61.3,58.0,30.19,NNW,336,0.0,1.0,88,0.00,,,0.00,weatherlink.com 1.10,2013-09-28 08:20:00,
2013-09-28 04:35:00,61.4,58.0,30.19,WNW,302,1.0,2.0,88,0.00,,,0.00,weatherlink.com 1.10,2013-09-28 08:35:00,
2013-09-28 04:50:00,61.6,58.0,30.19,NW,306,2.0,3.0,87,0.00,,,0.00,weatherlink.com 1.10,2013-09-28 08:50:00,
2013-09-28 05:05:00,61.7,58.0,30.19,NW,315,0.0,1.0,86,0.00,,,0.00,weatherlink.com 1.10,2013-09-28 09:05:00,
2013-09-28 05:20:00,62.0,58.0,30.20,North,358,0.0,0.0,85,0.00,,,0.00,weatherlink.com 1.10,2013-09-28 09:20:00,
2013-09-28 05:35:00,62.5,59.0,30.20,East,89,0.0,1.0,87,0.00,,,0.00,weatherlink.com 1.10,2013-09-28 09:35:00,
2013-09-28 05:50:00,61.5,57.0,30.20,NE,54,1.0,2.0,86,0.00,,,0.00,weatherlink.com 1.10,2013-09-28 09:50:00,
2013-09-28 06:05:00,61.8,58.0,30.21,ENE,65,2.0,2.0,86,0.00,,,0.00,weatherlink.com 1.10,2013-09-28 10:05:00,
2013-09-28 06:20:00,61.4,57.0,30.21,ENE,70,0.0,3.0,86,0.00,,,0.00,weatherlink.com 1.10,2013-09-28 10:20:00,
2013-09-28 06:35:00,61.1,57.0,30.21,East,82,2.0,3.0,87,0.00,,,0.00,weatherlink.com 1.10,2013-09-28 10:35:00,
2013-09-28 06:51:00,60.9,57.0,30.22,East,86,2.0,3.0,88,0.00,,,0.00,weatherlink.com 1.10,2013-09-28 10:51:00,
2013-09-28 07:06:00,60.5,57.0,30.23,East,88,1.0,2.0,89,0.00,,,0.00,weatherlink.com 1.10,2013-09-28 11:06:00,
2013-09-28 07:21:00,59.4,57.0,30.23,ESE,115,2.0,3.0,91,0.00,,,0.00,weatherlink.com 1.10,2013-09-28 11:21:00,
2013-09-28 07:36:00,59.3,57.0,30.24,ESE,122,3.0,4.0,92,0.00,,,0.00,weatherlink.com 1.10,2013-09-28 11:36:00,
2013-09-28 07:51:00,58.8,57.0,30.24,ESE,105,2.0,3.0,93,0.00,,,0.00,weatherlink.com 1.10,2013-09-28 11:51:00,
2013-09-28 08:06:00,59.4,57.0,30.25,ESE,111,3.0,3.0,92,0.00,,,0.00,weatherlink.com 1.10,2013-09-28 12:06:00,
2013-09-28 08:21:00,58.9,57.0,30.25,East,94,3.0,5.0,92,0.00,,,0.00,weatherlink.com 1.10,2013-09-28 12:21:00,
2013-09-28 08:36:00,59.1,57.0,30.25,East,89,2.0,4.0,92,0.00,,,0.00,weatherlink.com 1.10,2013-09-28 12:36:00,
2013-09-28 08:51:00,59.3,57.0,30.26,East,86,3.0,6.0,91,0.00,,,0.00,weatherlink.com 1.10,2013-09-28 12:51:00,
2013-09-28 09:06:00,60.4,57.0,30.27,ESE,107,4.0,9.0,89,0.00,,,0.00,weatherlink.com 1.10,2013-09-28 13:06:00,
2013-09-28 09:21:00,62.3,58.0,30.27,SE,129,4.0,5.0,87,0.00,,,0.00,weatherlink.com 1.10,2013-09-28 13:21:00,
2013-09-28 09:36:00,63.8,59.0,30.27,ESE,115,1.0,5.0,84,0.00,,,0.00,weatherlink.com 1.10,2013-09-28 13:36:00,
2013-09-28 09:51:00,65.4,59.0,30.28,SSE,165,2.0,6.0,79,0.00,,,0.00,weatherlink.com 1.10,2013-09-28 13:51:00,
2013-09-28 10:06:00,65.4,59.0,30.28,East,95,2.0,6.0,80,0.00,,,0.00,weatherlink.com 1.10,2013-09-28 14:06:00,
2013-09-28 10:21:00,66.6,60.0,30.28,ESE,119,4.0,7.0,78,0.00,,,0.00,weatherlink.com 1.10,2013-09-28 14:21:00,
2013-09-28 10:36:00,68.2,60.0,30.28,SE,131,3.0,7.0,75,0.00,,,0.00,weatherlink.com 1.10,2013-09-28 14:36:00,
2013-09-28 10:51:00,69.2,61.0,30.28,ENE,66,0.0,6.0,74,0.00,,,0.00,weatherlink.com 1.10,2013-09-28 14:51:00,
2013-09-28 11:06:00,70.1,60.0,30.28,SE,131,3.0,6.0,70,0.00,,,0.00,weatherlink.com 1.10,2013-09-28 15:06:00,
2013-09-28 11:21:00,72.6,61.0,30.29,East,84,4.0,5.0,66,0.00,,,0.00,weatherlink.com 1.10,2013-09-28 15:21:00,
2013-09-28 11:36:00,69.3,60.0,30.28,ESE,122,5.0,6.0,71,0.00,,,0.00,weatherlink.com 1.10,2013-09-28 15:36:00,
2013-09-28 11:51:00,70.0,60.0,30.28,East,88,5.0,8.0,70,0.00,,,0.00,weatherlink.com 1.10,2013-09-28 15:51:00,
2013-09-28 12:06:00,70.6,60.0,30.27,East,82,6.0,8.0,68,0.00,,,0.00,weatherlink.com 1.10,2013-09-28 16:06:00,
2013-09-28 12:21:00,71.9,60.0,30.27,East,86,4.0,9.0,66,0.00,,,0.00,weatherlink.com 1.10,2013-09-28 16:21:00,
2013-09-28 12:36:00,72.3,60.0,30.27,SE,131,4.0,8.0,65,0.00,,,0.00,weatherlink.com 1.10,2013-09-28 16:36:00,
2013-09-28 12:51:00,72.7,59.0,30.27,NW,314,1.0,6.0,62,0.00,,,0.00,weatherlink.com 1.10,2013-09-28 16:51:00,
2013-09-28 13:06:00,75.5,61.0,30.26,SE,142,2.0,6.0,60,0.00,,,0.00,weatherlink.com 1.10,2013-09-28 17:06:00,
2013-09-28 13:21:00,74.2,61.0,30.25,SE,141,5.0,10.0,64,0.00,,,0.00,weatherlink.com 1.10,2013-09-28 17:21:00,
2013-09-28 13:36:00,75.1,60.0,30.24,South,177,1.0,8.0,60,0.00,,,0.00,weatherlink.com 1.10,2013-09-28 17:36:00,
2013-09-28 13:51:00,75.7,60.0,30.23,SE,136,4.0,14.0,58,0.00,,,0.00,weatherlink.com 1.10,2013-09-28 17:51:00,
2013-09-28 14:06:00,76.4,61.0,30.23,NNW,338,0.0,5.0,59,0.00,,,0.00,weatherlink.com 1.10,2013-09-28 18:06:00,
2013-09-28 14:21:00,74.5,60.0,30.22,East,95,1.0,5.0,61,0.00,,,0.00,weatherlink.com 1.10,2013-09-28 18:21:00,
2013-09-28 14:36:00,74.5,60.0,30.22,NW,307,2.0,2.0,61,0.00,,,0.00,weatherlink.com 1.10,2013-09-28 18:36:00,
2013-09-28 14:51:00,74.1,60.0,30.21,WNW,302,1.0,5.0,61,0.00,,,0.00,weatherlink.com 1.10,2013-09-28 18:51:00,
2013-09-28 15:06:00,75.9,60.0,30.21,East,85,0.0,9.0,59,0.00,,,0.00,weatherlink.com 1.10,2013-09-28 19:06:00,
2013-09-28 15:21:00,74.4,60.0,30.20,NE,46,0.0,4.0,61,0.00,,,0.00,weatherlink.com 1.10,2013-09-28 19:21:00,
2013-09-28 15:36:00,74.8,60.0,30.20,ENE,72,0.0,1.0,61,0.00,,,0.00,weatherlink.com 1.10,2013-09-28 19:36:00,
2013-09-28 15:51:00,78.6,61.0,30.19,ENE,70,3.0,3.0,55,0.00,,,0.00,weatherlink.com 1.10,2013-09-28 19:51:00,
2013-09-28 16:06:00,77.1,60.0,30.19,ESE,103,2.0,5.0,56,0.00,,,0.00,weatherlink.com 1.10,2013-09-28 20:06:00,
2013-09-28 16:21:00,77.6,58.0,30.19,East,89,2.0,5.0,52,0.00,,,0.00,weatherlink.com 1.10,2013-09-28 20:21:00,
2013-09-28 16:36:00,77.6,59.0,30.19,NE,48,2.0,4.0,53,0.00,,,0.00,weatherlink.com 1.10,2013-09-28 20:36:00,
2013-09-28 16:51:00,75.8,58.0,30.18,ESE,102,3.0,7.0,55,0.00,,,0.00,weatherlink.com 1.10,2013-09-28 20:51:00,
2013-09-28 17:06:00,75.4,57.0,30.18,East,92,6.0,7.0,54,0.00,,,0.00,weatherlink.com 1.10,2013-09-28 21:06:00,
2013-09-28 17:21:00,75.7,58.0,30.17,ESE,103,3.0,8.0,55,0.00,,,0.00,weatherlink.com 1.10,2013-09-28 21:21:00,
2013-09-28 17:36:00,76.0,57.0,30.17,South,187,0.0,5.0,52,0.00,,,0.00,weatherlink.com 1.10,2013-09-28 21:36:00,
2013-09-28 17:51:00,75.5,57.0,30.17,ENE,63,0.0,6.0,53,0.00,,,0.00,weatherlink.com 1.10,2013-09-28 21:51:00,
2013-09-28 18:06:00,74.4,57.0,30.17,ENE,58,1.0,8.0,55,0.00,,,0.00,weatherlink.com 1.10,2013-09-28 22:06:00,
2013-09-28 18:22:00,74.6,57.0,30.16,ESE,112,2.0,3.0,55,0.00,,,0.00,weatherlink.com 1.10,2013-09-28 22:22:00,
2013-09-28 18:37:00,73.9,58.0,30.16,East,79,3.0,5.0,57,0.00,,,0.00,weatherlink.com 1.10,2013-09-28 22:37:00,
2013-09-28 18:52:00,73.3,58.0,30.16,East,93,2.0,4.0,59,0.00,,,0.00,weatherlink.com 1.10,2013-09-28 22:52:00,
2013-09-28 19:07:00,73.1,58.0,30.16,East,95,2.0,4.0,60,0.00,,,0.00,weatherlink.com 1.10,2013-09-28 23:07:00,
2013-09-28 19:22:00,72.5,58.0,30.16,ESE,102,1.0,3.0,61,0.00,,,0.00,weatherlink.com 1.10,2013-09-28 23:22:00,
2013-09-28 19:38:00,71.6,58.0,30.15,ESE,103,3.0,3.0,62,0.00,,,0.00,weatherlink.com 1.10,2013-09-28 23:38:00,
2013-09-28 19:52:00,71.4,59.0,30.16,ESE,105,2.0,4.0,64,0.00,,,0.00,weatherlink.com 1.10,2013-09-28 23:52:00,
2013-09-28 20:07:00,71.4,59.0,30.16,East,101,3.0,4.0,64,0.00,,,0.00,weatherlink.com 1.10,2013-09-29 00:07:00,
2013-09-28 20:22:00,71.3,58.0,30.16,East,91,1.0,3.0,64,0.00,,,0.00,weatherlink.com 1.10,2013-09-29 00:22:00,
2013-09-28 20:37:00,71.2,58.0,30.16,ESE,102,3.0,4.0,64,0.00,,,0.00,weatherlink.com 1.10,2013-09-29 00:37:00,
2013-09-28 20:52:00,70.8,58.0,30.16,East,98,2.0,4.0,65,0.00,,,0.00,weatherlink.com 1.10,2013-09-29 00:52:00,
2013-09-28 21:07:00,70.6,59.0,30.16,ESE,105,3.0,3.0,66,0.00,,,0.00,weatherlink.com 1.10,2013-09-29 01:07:00,
2013-09-28 21:22:00,70.2,59.0,30.16,East,92,1.0,3.0,67,0.00,,,0.00,weatherlink.com 1.10,2013-09-29 01:22:00,
2013-09-28 21:36:00,69.9,58.0,30.16,East,86,0.0,3.0,67,0.00,,,0.00,weatherlink.com 1.10,2013-09-29 01:36:00,
2013-09-28 22:06:00,67.5,59.0,30.16,North,1,0.0,1.0,75,0.00,,,0.00,weatherlink.com 1.10,2013-09-29 02:06:00,
2013-09-28 22:21:00,66.9,58.0,30.16,NNE,23,0.0,2.0,74,0.00,,,0.00,weatherlink.com 1.10,2013-09-29 02:21:00,
2013-09-28 22:36:00,67.3,58.0,30.16,NNE,23,0.0,0.0,73,0.00,,,0.00,weatherlink.com 1.10,2013-09-29 02:36:00,
2013-09-28 22:51:00,67.5,58.0,30.17,NNE,23,0.0,0.0,71,0.00,,,0.00,weatherlink.com 1.10,2013-09-29 02:51:00,
2013-09-28 23:06:00,67.1,58.0,30.16,North,349,0.0,0.0,73,0.00,,,0.00,weatherlink.com 1.10,2013-09-29 03:06:00,
2013-09-28 23:21:00,67.0,58.0,30.17,North,355,0.0,0.0,74,0.00,,,0.00,weatherlink.com 1.10,2013-09-29 03:21:00,
2013-09-28 23:36:00,65.3,59.0,30.17,SSE,155,2.0,3.0,80,0.00,,,0.00,weatherlink.com 1.10,2013-09-29 03:36:00,
2013-09-28 23:51:00,64.0,59.0,30.17,SSW,207,0.0,4.0,84,0.00,,,0.00,weatherlink.com 1.10,2013-09-29 03:51:00,